Krabi, Thailand

2:48 PM +07 on April 28, 2017 (GMT +0700)
Krabi

Weather History for VTSG - August, 2014

Change the Weather History Date:

Friday, August 1, 2014

  Actual Average (VTSP) Record (VTSP)
Temperature  
Mean Temperature 82 °F -  
Max Temperature 91 °F 88 °F 93 °F (1996)
Min Temperature 73 °F 78 °F 71 °F (2013)
Cooling Degree Days 17    
Growing Degree Days 32 (Base 50)    
Moisture  
Dew Point 72 °F    
Average Humidity 76    
Maximum Humidity 100    
Minimum Humidity 49    
Precipitation  
Precipitation 0.00 in - - ()
Sea Level Pressure  
Sea Level Pressure 29.81 in    
Wind  
Wind Speed 4 mph ()    
Max Wind Speed 14 mph    
Max Gust Speed -    
Visibility 5.5 miles    
Events      
Averages and records for this station are not official NWS values.
T = Trace of Precipitation, MM = Missing Value Source: Averaged Metar Reports

Daily Weather History Graph

Daily Weather History Graph

Search for Another Location

Airport or City:

Trip Planner

Search our weather history database for the weather conditions in past years. The results will help you decide how hot, cold, wet, or windy it might be!

Date:

Astronomy

Aug. 01, 2014 Rise Set
Actual Time 6:16 AM +07 6:44 PM +07
Civil Twilight 5:54 AM +07 7:06 PM +07
Nautical Twilight 5:28 AM +07 7:32 PM +07
Astronomical Twilight 5:02 AM +07 7:58 PM +07
Moon 10:05 AM +07 (8/1) 10:21 PM +07 (8/1)
Length of Visible Light 13h 12m
Length of Day
12h 28m
Waxing Crescent, 23% of the Moon is Illuminated
Aug 1
Waxing Crescent
Aug 4
First Quarter
Aug 11
Full
Aug 17
Last Quarter
Aug 25
New

Hourly Weather History & Observations

Time (+07) Temp. Heat Index Dew Point Humidity Pressure Visibility Wind Dir Wind Speed Gust Speed Precip Events Conditions
12:00 AM 75.2 °F - 73.4 °F 94% 29.83 in 5.6 mi Calm Calm - N/A   Mostly Cloudy
1:00 AM 75.2 °F - 73.4 °F 94% 29.83 in 5.0 mi Calm Calm - N/A   Mostly Cloudy
2:00 AM 75.2 °F - 73.4 °F 94% 29.80 in 4.3 mi Calm Calm - N/A   Scattered Clouds
4:00 AM 73.4 °F - 71.6 °F 94% 29.80 in 4.3 mi Calm Calm - N/A   Scattered Clouds
6:00 AM 73.4 °F - 71.6 °F 94% 29.80 in 3.7 mi Calm Calm - N/A   Partly Cloudy
7:00 AM 73.4 °F - 71.6 °F 94% 29.80 in 2.5 mi Calm Calm - N/A   Scattered Clouds
8:00 AM 77.0 °F - 77.0 °F 100% 29.83 in 5.6 mi Calm Calm - N/A   Mostly Cloudy
9:00 AM 84.2 °F 92.3 °F 75.2 °F 74% 29.83 in 6.2 mi West 6.9 mph - N/A   Partly Cloudy
10:00 AM 87.8 °F 97.6 °F 75.2 °F 66% 29.83 in 6.2 mi West 8.1 mph - N/A   Partly Cloudy
11:00 AM 87.8 °F 95.6 °F 73.4 °F 62% 29.83 in 6.2 mi WSW 11.5 mph - N/A   Partly Cloudy
12:00 PM 89.6 °F 96.2 °F 71.6 °F 55% 29.83 in 6.2 mi WSW 12.7 mph - N/A   Partly Cloudy
1:00 PM 91.4 °F 98.4 °F 71.6 °F 52% 29.80 in 6.2 mi West 11.5 mph - N/A   Scattered Clouds
2:00 PM 91.4 °F 96.8 °F 69.8 °F 49% 29.80 in 6.2 mi WNW 13.8 mph - N/A   Partly Cloudy
3:00 PM 91.4 °F 98.4 °F 71.6 °F 52% 29.77 in 6.2 mi West 11.5 mph - N/A   Partly Cloudy
4:00 PM 87.8 °F 92.6 °F 69.8 °F 55% 29.77 in 6.2 mi West 11.5 mph - N/A   Partly Cloudy
6:00 PM 86.0 °F 90.4 °F 69.8 °F 58% 29.77 in 6.2 mi West 10.4 mph - N/A   Partly Cloudy
7:00 PM 84.2 °F 88.4 °F 69.8 °F 62% 29.77 in 6.2 mi West 8.1 mph - N/A   Partly Cloudy
8:00 PM 80.6 °F 84.6 °F 71.6 °F 74% 29.80 in 6.2 mi West 4.6 mph - N/A   Partly Cloudy
10:00 PM 75.2 °F - 73.4 °F 94% 29.83 in 5.6 mi ENE 2.3 mph - N/A   Scattered Clouds
11:00 PM 75.2 °F - 73.4 °F 94% 29.83 in 4.3 mi Variable 2.3 mph - N/A   Scattered Clouds